timestamp,wind_dir_avg,wind_spd_avg,wind_spd_max_dir,wind_spd_gust,battery_voltage,lat,long
2020-12-17 00:04:01+00:00,287.0,16.7,283.0,22.79,12.65,47.59359,-54.27349
2020-12-17 00:14:01+00:00,292.0,15.99,292.0,23.79,12.57,47.59359,-54.27349
2020-12-17 00:24:01+00:00,288.0,17.15,288.0,23.13,12.57,47.59359,-54.27349
2020-12-17 00:34:01+00:00,294.0,17.44,287.0,23.25,12.57,47.59359,-54.27349
2020-12-17 00:44:01+00:00,290.0,17.22,286.0,22.83,12.57,47.59359,-54.27349
2020-12-17 00:54:01+00:00,300.0,17.63,304.0,22.22,12.57,47.59359,-54.27349
2020-12-17 01:04:01+00:00,298.0,14.99,302.0,17.52,12.57,47.59359,-54.27349
2020-12-17 01:14:01+00:00,290.0,17.57,290.0,23.15,12.57,47.59359,-54.27349
2020-12-17 01:24:01+00:00,292.0,16.84,291.0,23.0,12.57,47.59359,-54.27349
2020-12-17 01:34:01+00:00,293.0,15.98,286.0,22.42,12.57,47.59359,-54.27349
2020-12-17 01:44:01+00:00,283.0,14.56,285.0,18.37,12.57,47.59359,-54.27349
2020-12-17 01:54:01+00:00,292.0,14.86,287.0,22.99,12.57,47.59359,-54.27349
2020-12-17 02:04:01+00:00,298.0,15.3,303.0,20.8,12.57,47.59359,-54.27349
2020-12-17 02:14:01+00:00,301.0,13.38,299.0,14.93,12.57,47.59359,-54.27349
2020-12-17 02:24:01+00:00,298.0,15.4,300.0,18.12,12.57,47.59359,-54.27349
2020-12-17 02:34:01+00:00,303.0,13.37,304.0,15.52,12.57,47.59359,-54.27349
2020-12-17 02:44:01+00:00,303.0,15.17,299.0,18.49,12.57,47.59359,-54.27349
2020-12-17 02:54:01+00:00,298.0,14.09,299.0,18.15,12.57,47.59359,-54.27349
2020-12-17 03:04:01+00:00,300.0,16.27,285.0,19.58,12.57,47.59359,-54.27349
2020-12-17 03:14:01+00:00,303.0,14.63,298.0,17.69,12.57,47.59359,-54.27349
2020-12-17 03:24:01+00:00,297.0,14.63,284.0,20.27,12.57,47.59359,-54.27349
2020-12-17 03:34:01+00:00,300.0,13.75,296.0,16.54,12.57,47.59359,-54.27349
2020-12-17 03:44:01+00:00,303.0,12.43,307.0,15.67,12.57,47.59359,-54.27349
2020-12-17 03:54:01+00:00,301.0,12.94,304.0,15.73,12.57,47.59359,-54.27349
2020-12-17 04:04:01+00:00,297.0,12.18,296.0,14.91,12.57,47.59359,-54.27349
2020-12-17 04:14:01+00:00,304.0,12.16,302.0,15.6,12.49,47.59359,-54.27349
2020-12-17 04:24:01+00:00,288.0,9.73,299.0,12.35,12.49,47.59359,-54.27349
2020-12-17 04:34:01+00:00,291.0,10.33,305.0,15.01,12.49,47.59359,-54.27349
2020-12-17 04:44:01+00:00,302.0,12.53,307.0,16.24,12.49,47.59359,-54.27349
2020-12-17 04:54:01+00:00,307.0,11.32,305.0,14.96,12.49,47.59359,-54.27349
2020-12-17 05:04:01+00:00,308.0,8.51,313.0,11.41,12.49,47.59359,-54.27349
2020-12-17 05:14:01+00:00,302.0,8.78,307.0,11.67,12.41,47.59359,-54.27349
2020-12-17 05:24:01+00:00,301.0,6.64,301.0,8.06,12.41,47.59359,-54.27349
2020-12-17 05:34:01+00:00,287.0,8.38,287.0,11.67,12.41,47.59359,-54.27349
2020-12-17 05:44:01+00:00,302.0,12.65,301.0,15.45,12.41,47.59359,-54.27349
2020-12-17 05:54:01+00:00,279.0,9.34,280.0,11.91,12.41,47.59359,-54.27349
2020-12-17 06:04:01+00:00,276.0,11.55,283.0,15.6,12.41,47.59359,-54.27349
2020-12-17 06:14:01+00:00,291.0,11.87,303.0,13.73,12.49,47.59359,-54.27349
2020-12-17 06:24:01+00:00,305.0,12.02,305.0,16.24,12.49,47.59359,-54.27349
2020-12-17 06:34:01+00:00,306.0,9.6,311.0,16.15,12.49,47.59359,-54.27349
2020-12-17 06:44:01+00:00,303.0,10.27,299.0,15.42,12.49,47.59359,-54.27349
2020-12-17 06:54:01+00:00,296.0,9.74,297.0,14.48,12.49,47.59359,-54.27349
2020-12-17 07:04:01+00:00,297.0,8.09,308.0,11.09,12.49,47.59359,-54.27349
2020-12-17 07:14:01+00:00,295.0,8.28,294.0,10.76,12.41,47.59359,-54.27349
2020-12-17 07:24:01+00:00,320.0,6.86,311.0,9.28,12.41,47.59359,-54.27349
2020-12-17 07:34:01+00:00,299.0,6.59,294.0,8.35,12.41,47.59359,-54.27349
2020-12-17 07:44:01+00:00,307.0,5.46,301.0,6.98,12.41,47.59359,-54.27349
2020-12-17 07:54:01+00:00,303.0,5.41,302.0,6.78,12.41,47.59359,-54.27349
2020-12-17 08:04:01+00:00,296.0,7.02,304.0,8.83,12.41,47.59359,-54.27349
2020-12-17 08:14:01+00:00,311.0,9.37,311.0,13.19,12.41,47.59359,-54.27349
2020-12-17 08:24:01+00:00,314.0,6.98,308.0,8.34,12.41,47.59359,-54.27349
2020-12-17 08:34:01+00:00,310.0,7.59,307.0,10.11,12.41,47.59359,-54.27349
2020-12-17 08:44:01+00:00,307.0,9.15,306.0,11.16,12.41,47.59359,-54.27349
2020-12-17 08:54:01+00:00,308.0,8.98,302.0,11.19,12.41,47.59359,-54.27349
2020-12-17 09:04:01+00:00,308.0,10.26,302.0,12.88,12.41,47.59359,-54.27349
2020-12-17 09:14:01+00:00,305.0,8.49,320.0,11.76,12.41,47.59359,-54.27349
2020-12-17 09:24:01+00:00,305.0,7.36,311.0,9.78,12.41,47.59359,-54.27349
2020-12-17 09:34:01+00:00,305.0,7.26,299.0,9.47,12.41,47.59359,-54.27349
2020-12-17 09:44:01+00:00,299.0,8.31,300.0,9.99,12.41,47.59359,-54.27349
2020-12-17 09:54:01+00:00,304.0,9.5,302.0,12.77,12.41,47.59359,-54.27349
2020-12-17 10:04:01+00:00,307.0,7.71,303.0,10.09,12.41,47.59359,-54.27349
2020-12-17 10:14:01+00:00,299.0,5.23,301.0,6.86,12.41,47.59359,-54.27349
2020-12-17 10:24:01+00:00,299.0,6.66,300.0,7.96,12.41,47.59359,-54.27349
2020-12-17 10:34:01+00:00,298.0,8.0,289.0,10.38,12.41,47.59359,-54.27349
2020-12-17 10:44:01+00:00,320.0,8.08,322.0,11.24,12.41,47.59359,-54.27349
2020-12-17 10:54:01+00:00,318.0,8.89,325.0,10.98,12.41,47.59359,-54.27349
2020-12-17 11:04:01+00:00,324.0,10.22,327.0,12.31,12.41,47.59359,-54.27349
2020-12-17 11:14:01+00:00,312.0,10.5,318.0,13.56,12.41,47.59359,-54.27349
2020-12-17 11:24:01+00:00,309.0,10.17,296.0,15.33,12.41,47.59359,-54.27349
2020-12-17 11:34:01+00:00,314.0,9.61,324.0,11.79,12.41,47.59359,-54.27349
2020-12-17 11:44:01+00:00,317.0,10.5,307.0,12.77,12.41,47.59359,-54.27349
2020-12-17 11:54:01+00:00,310.0,10.8,306.0,14.42,12.41,47.59359,-54.27349
2020-12-17 12:04:01+00:00,311.0,11.6,302.0,16.44,12.41,47.59359,-54.27349
2020-12-17 12:14:01+00:00,321.0,10.43,303.0,15.08,12.41,47.59359,-54.27349
2020-12-17 12:24:01+00:00,317.0,7.48,312.0,8.5,12.41,47.59359,-54.27349
2020-12-17 12:34:01+00:00,325.0,9.83,321.0,11.9,12.41,47.59359,-54.27349
2020-12-17 12:44:01+00:00,320.0,8.61,319.0,11.03,12.41,47.59359,-54.27349
2020-12-17 12:54:01+00:00,321.0,8.64,323.0,10.91,12.41,47.59359,-54.27349
2020-12-17 13:04:01+00:00,312.0,7.45,318.0,9.0,12.41,47.59359,-54.27349
2020-12-17 13:14:01+00:00,319.0,6.09,322.0,7.93,12.89,47.59359,-54.27349
2020-12-17 13:24:01+00:00,304.0,4.49,323.0,6.04,12.89,47.59359,-54.27349
2020-12-17 13:34:01+00:00,269.0,1.94,264.0,3.68,12.89,47.59359,-54.27349
2020-12-17 13:44:01+00:00,249.0,3.22,274.0,4.04,12.89,47.59359,-54.27349
2020-12-17 13:54:01+00:00,258.0,4.38,262.0,5.98,12.89,47.59359,-54.27349
2020-12-17 14:04:01+00:00,270.0,3.43,267.0,4.42,12.89,47.59359,-54.27349
2020-12-17 14:14:01+00:00,249.0,4.28,256.0,5.3,13.6,47.59359,-54.27349
2020-12-17 14:24:01+00:00,245.0,4.58,249.0,5.69,13.6,47.59359,-54.27349
2020-12-17 14:34:01+00:00,293.0,1.52,300.0,2.2,13.6,47.59359,-54.27349
2020-12-17 14:44:01+00:00,305.0,4.54,308.0,5.59,13.6,47.59359,-54.27349
2020-12-17 14:54:01+00:00,311.0,4.96,295.0,5.85,13.6,47.59359,-54.27349
2020-12-17 15:04:01+00:00,335.0,3.65,329.0,4.47,13.6,47.59359,-54.27349
2020-12-17 15:14:01+00:00,342.0,3.63,340.0,4.44,13.68,47.59359,-54.27349
2020-12-17 15:24:01+00:00,336.0,3.23,333.0,4.22,13.68,47.59359,-54.27349
2020-12-17 15:34:01+00:00,339.0,2.93,328.0,3.78,13.68,47.59359,-54.27349
2020-12-17 15:44:01+00:00,2.0,4.12,2.0,4.61,13.68,47.59359,-54.27349
2020-12-17 15:54:01+00:00,341.0,4.46,350.0,4.9,13.68,47.59359,-54.27349
2020-12-17 16:04:01+00:00,328.0,4.42,335.0,5.35,13.68,47.59359,-54.27349
2020-12-17 16:14:01+00:00,339.0,4.5,345.0,5.22,13.68,47.59359,-54.27349
2020-12-17 16:24:01+00:00,336.0,5.42,346.0,6.05,13.68,47.59359,-54.27349
2020-12-17 16:34:01+00:00,348.0,5.37,349.0,6.9,13.68,47.59359,-54.27349
2020-12-17 16:44:01+00:00,351.0,5.16,348.0,6.52,13.68,47.59359,-54.27349
2020-12-17 16:54:01+00:00,341.0,4.84,340.0,5.77,13.68,47.59359,-54.27349
2020-12-17 17:04:01+00:00,345.0,4.87,339.0,6.0,13.68,47.59359,-54.27349
2020-12-17 17:14:01+00:00,342.0,4.57,340.0,5.2,13.84,47.59359,-54.27349
2020-12-17 17:24:01+00:00,356.0,4.53,356.0,5.51,13.84,47.59359,-54.27349
2020-12-17 17:34:01+00:00,359.0,4.46,353.0,5.06,13.84,47.59359,-54.27349
2020-12-17 17:44:01+00:00,335.0,3.71,332.0,4.35,13.84,47.59359,-54.27349
2020-12-17 17:54:01+00:00,354.0,4.52,358.0,5.49,13.84,47.59359,-54.27349
2020-12-17 18:04:01+00:00,359.0,4.96,2.0,5.48,13.84,47.59359,-54.27349
2020-12-17 18:14:01+00:00,4.0,4.3,0.0,5.59,13.44,47.59359,-54.27349
2020-12-17 18:24:01+00:00,4.0,4.28,2.0,5.08,13.44,47.59359,-54.27349
2020-12-17 18:34:01+00:00,14.0,3.88,3.0,5.28,13.44,47.59359,-54.27349
2020-12-17 18:44:01+00:00,26.0,4.59,26.0,5.45,13.44,47.59359,-54.27349
2020-12-17 18:54:01+00:00,19.0,4.05,18.0,5.8,13.44,47.59359,-54.27349
2020-12-17 19:04:01+00:00,26.0,5.0,28.0,5.54,13.44,47.59359,-54.27349
2020-12-17 19:14:01+00:00,27.0,3.79,29.0,4.37,12.97,47.59359,-54.27349
2020-12-17 19:24:01+00:00,48.0,3.26,46.0,4.16,12.97,47.59359,-54.27349
2020-12-17 19:34:01+00:00,32.0,3.08,27.0,3.71,12.97,47.59359,-54.27349
2020-12-17 19:44:01+00:00,37.0,4.7,30.0,5.95,12.97,47.59359,-54.27349
2020-12-17 19:54:01+00:00,28.0,3.75,24.0,4.62,12.97,47.59359,-54.27349
2020-12-17 20:04:01+00:00,35.0,3.98,40.0,5.18,12.97,47.59359,-54.27349
2020-12-17 20:14:01+00:00,38.0,3.52,49.0,4.25,12.65,47.59359,-54.27349
2020-12-17 20:24:01+00:00,38.0,5.72,35.0,6.78,12.65,47.59359,-54.27349
2020-12-17 20:34:01+00:00,44.0,5.48,41.0,6.04,12.65,47.59359,-54.27349
2020-12-17 20:44:01+00:00,32.0,5.63,34.0,6.39,12.65,47.59359,-54.27349
2020-12-17 20:54:01+00:00,33.0,4.98,29.0,6.69,12.65,47.59359,-54.27349
2020-12-17 21:04:01+00:00,33.0,5.3,34.0,5.8,12.65,47.59359,-54.27349
2020-12-17 21:14:01+00:00,46.0,6.77,47.0,7.89,12.65,47.59359,-54.27349
2020-12-17 21:24:01+00:00,44.0,6.01,36.0,7.43,12.65,47.59359,-54.27349
2020-12-17 21:34:01+00:00,59.0,5.24,61.0,6.14,12.65,47.59359,-54.27349
2020-12-17 21:44:01+00:00,48.0,5.06,46.0,5.91,12.65,47.59359,-54.27349
2020-12-17 21:54:01+00:00,53.0,5.61,48.0,6.58,12.65,47.59359,-54.27349
2020-12-17 22:04:01+00:00,68.0,4.8,59.0,5.62,12.65,47.59359,-54.27349
2020-12-17 22:14:01+00:00,55.0,4.92,59.0,5.37,12.57,47.59359,-54.27349
2020-12-17 22:24:01+00:00,72.0,4.6,66.0,5.72,12.57,47.59359,-54.27349
2020-12-17 22:34:01+00:00,64.0,5.38,73.0,6.45,12.57,47.59359,-54.27349
2020-12-17 22:44:01+00:00,55.0,4.62,52.0,5.21,12.57,47.59359,-54.27349
2020-12-17 22:54:01+00:00,91.0,2.53,70.0,3.58,12.57,47.59359,-54.27349
2020-12-17 23:04:01+00:00,61.0,3.26,58.0,3.75,12.57,47.59359,-54.27349
2020-12-17 23:14:01+00:00,68.0,4.62,68.0,5.06,12.57,47.59359,-54.27349
2020-12-17 23:24:01+00:00,65.0,5.78,71.0,6.9,12.57,47.59359,-54.27349
2020-12-17 23:34:01+00:00,60.0,5.78,62.0,6.76,12.57,47.59359,-54.27349
2020-12-17 23:44:01+00:00,62.0,5.76,61.0,6.53,12.57,47.59359,-54.27349
2020-12-17 23:54:01+00:00,27.0,5.14,24.0,5.94,12.57,47.59359,-54.27349
